This is the latest recevied weather packets stored in our database for station/object KC3DGM. If no packets are shown the sender has not sent any weather packets the latest 10 day(s).
| Time | Temp. | Humidity | Pressure | Rain* | Wind** | Luminosity | Snow |
|---|---|---|---|---|---|---|---|
| 1777895552 | 10.56° C | 65% | 980.8 hPa | 0 mm | - | 33 W/m² | - |
| 1777895250 | 10.56° C | 65% | 980.7 hPa | 0 mm | - | 35 W/m² | - |
| 1777894947 | 10.56° C | 64% | 980.9 hPa | 0 mm | - | 30 W/m² | - |
| 1777894645 | 10.56° C | 65% | 981 hPa | 0 mm | - | 29 W/m² | - |
| 1777894341 | 10° C | 65% | 980.7 hPa | 0 mm | - | 28 W/m² | - |
| 1777894039 | 10° C | 66% | 980.9 hPa | 0 mm | - | 25 W/m² | - |
| 1777893735 | 10° C | 66% | 980.7 hPa | 0 mm | - | 23 W/m² | - |
| 1777893432 | 10° C | 66% | 980.6 hPa | 0 mm | - | 21 W/m² | - |
| 1777893128 | 10° C | 66% | 980.5 hPa | 0 mm | - | 19 W/m² | - |
| 1777892825 | 10° C | 66% | 980.6 hPa | 0 mm | - | 19 W/m² | - |
| 1777892521 | 9.44° C | 66% | 980.7 hPa | 0 mm | - | 17 W/m² | - |
| 1777892217 | 9.44° C | 67% | 980.6 hPa | 0 mm | - | 14 W/m² | - |
| 1777891914 | 9.44° C | 67% | 980.4 hPa | 0 mm | - | 13 W/m² | - |
| 1777891611 | 9.44° C | 67% | 980.6 hPa | 0 mm | - | 11 W/m² | - |
| 1777891307 | 9.44° C | 67% | 980.4 hPa | 0 mm | - | 10 W/m² | - |
| 1777891002 | 9.44° C | 67% | 980.6 hPa | 0 mm | - | 7 W/m² | - |
| 1777890696 | 9.44° C | 68% | 980.6 hPa | 0 mm | - | 5 W/m² | - |
| 1777890392 | 9.44° C | 67% | 980.7 hPa | 0 mm | - | 3 W/m² | - |
| 1777890088 | 9.44° C | 68% | 980.8 hPa | 0 mm | - | 1 W/m² | - |
| 1777889786 | 9.44° C | 67% | 980.7 hPa | 0 mm | - | 0 W/m² | - |
| 1777889483 | 8.89° C | 68% | 980.6 hPa | 0 mm | - | 0 W/m² | - |
| 1777889181 | 9.44° C | 68% | 980.5 hPa | 0 mm | - | 0 W/m² | - |
| 1777888879 | 9.44° C | 67% | 980.6 hPa | 0 mm | - | 0 W/m² | - |
| 1777888575 | 8.89° C | 67% | 980.8 hPa | 0 mm | - | 0 W/m² | - |
| 1777888271 | 9.44° C | 67% | 980.7 hPa | 0 mm | - | 0 W/m² | - |
* Rain latest hour (hover to see other rain measurements)
** Current wind speed in m/s (hover to see current wind gust speed)